Wind_Speed
14 14 13 12 12 12 11 11 11 10 9 8 8 8 8 8 8 8 8 8 6 6 6 6 6 7 9 13 14 8 14 13 13 13 19 23 16 14 8 2 12 12 10 17 33 19 22
14 14 14 13 13 13 12 11 10 10 9 8 7 7 7 8 8 7 7 6 5 5 5 6 6 5 6 10 17 18 7 12 14 13 20 20 19 8 2 8 10 12 7 12 35 19 17
15 15 14 14 14 13 13 12 11 9 8 7 7 7 8 8 8 7 6 5 6 5 5 6 5 3 3 9 13 16 15 9 13 13 19 22 16 12 2 5 9 5 10 29 24 23 18
16 16 16 15 14 14 14 14 12 10 8 7 7 6 6 7 7 5 5 6 6 7 7 7 7 5 2 11 14 12 9 9 11 15 21 21 15 13 3 5 10 11 4 21 19 17 27
18 17 16 15 15 15 15 15 13 11 9 8 7 5 5 6 5 5 6 7 8 9 11 12 14 11 12 5 8 11 8 10 10 14 21 20 14 11 7 4 4 1 7 4 7 8 27
19 18 16 15 15 15 15 15 14 12 10 8 7 5 5 5 4 5 8 6 6 6 7 9 9 8 12 10 3 8 11 16 10 16 25 22 15 15 17 13 5 7 11 6 6 6 20
21 21 18 17 17 17 16 15 13 11 10 8 7 7 5 5 4 6 5 5 5 8 7 5 7 8 10 9 12 3 17 11 13 19 23 16 16 20 17 13 10 8 4 7 6 4 9
22 20 19 19 18 18 17 14 12 11 10 9 8 7 5 5 6 7 4 8 13 11 6 12 11 7 7 3 8 9 18 12 15 14 9 11 15 11 11 7 11 3 3 6 6 4 18
23 21 20 19 19 19 16 13 11 10 9 8 7 7 6 6 8 9 9 12 9 8 7 10 11 8 5 6 4 8 16 13 14 13 12 15 11 9 12 15 12 5 7 6 2 11 17
23 22 21 20 19 18 15 12 11 9 8 7 7 6 6 6 8 7 11 12 9 8 6 9 7 7 9 4 1 6 3 16 14 7 8 13 9 8 10 20 18 14 6 3 11 6 4
24 23 22 21 19 17 15 12 10 9 8 7 6 4 3 6 4 5 13 12 9 6 4 4 4 8 5 2 3 1 5 12 13 13 9 16 6 6 12 20 24 13 7 3 8 8 14
25 24 23 22 19 17 15 12 9 8 8 7 5 3 2 4 3 12 16 7 8 6 4 3 4 5 2 2 2 6 3 13 9 10 10 16 13 11 11 11 27 20 17 13 7 7 4
26 25 24 22 20 16 13 10 7 7 7 6 6 4 3 7 14 16 12 13 10 6 5 5 5 4 4 6 4 8 3 14 5 2 1 6 11 5 10 28 19 16 28 6 2 3 6
27 26 25 22 20 17 13 9 6 5 7 7 7 7 13 24 15 12 12 13 8 14 12 13 5 5 4 5 5 9 3 8 10 6 11 8 4 17 20 14 15 24 12 9 4 2 3
25 25 24 23 20 17 15 10 4 3 5 6 8 13 20 15 12 12 14 12 9 11 13 11 7 8 4 1 12 7 10 1 9 7 8 10 6 8 16 14 18 27 20 12 5 7 4
24 24 24 23 21 18 15 11 3 2 10 11 12 16 14 10 9 12 13 8 4 13 7 12 10 5 6 5 10 4 3 6 4 4 3 5 8 5 10 22 17 14 11 12 15 5 4
25 24 23 22 21 19 16 11 1 5 17 14 12 11 10 8 10 11 11 6 9 10 10 10 7 8 2 6 13 3 4 3 6 1 5 3 4 6 6 19 26 23 16 7 7 5 6
23 23 22 22 20 18 15 10 1 9 10 10 9 9 8 3 10 7 3 3 4 4 4 12 9 14 7 8 6 5 2 2 7 5 7 7 2 12 9 1 5 9 11 11 13 6 5
23 22 21 20 20 18 14 11 3 9 12 8 8 9 3 2 6 4 8 2 4 5 6 7 3 6 10 8 3 4 5 4 5 13 8 6 6 8 2 4 3 4 10 6 12 16 20
23 22 20 18 18 17 14 9 5 9 16 9 6 5 4 7 11 12 2 4 5 0 3 5 6 0 5 8 10 2 6 6 2 9 9 8 3 3 5 10 13 10 10 12 13 6 11
23 21 19 18 18 17 15 9 6 7 18 14 8 5 1 3 4 4 4 4 5 5 1 5 2 4 6 6 10 1 2 6 9 1 4 3 2 1 14 9 10 7 11 14 13 11 5
23 21 19 17 17 16 15 11 7 7 16 19 14 9 4 6 1 8 3 5 7 2 2 3 6 8 3 4 5 4 7 4 4 4 8 9 4 7 5 12 10 10 6 10 9 11 6
23 21 19 17 16 15 15 12 9 9 15 21 20 13 8 5 6 4 2 9 7 9 9 4 6 10 13 11 6 4 7 10 12 12 6 7 7 8 3 1 6 5 7 5 10 9 2
23 23 20 18 16 15 14 13 9 9 15 20 21 15 13 11 4 2 2 8 10 3 2 8 6 9 11 13 11 9 7 11 12 10 6 8 10 3 7 3 2 10 8 5 7 8 10
23 23 21 19 18 16 15 13 11 10 13 19 23 19 13 16 3 2 5 7 5 5 4 5 5 7 16 2 4 5 6 2 7 8 8 8 7 2 2 1 8 10 8 7 3 2 4
23 23 21 19 17 16 15 14 12 12 12 17 23 24 16 18 5 2 3 3 7 7 6 5 6 7 10 3 4 4 7 11 4 5 5 7 11 6 3 4 5 11 10 9 12 8 4
23 23 21 18 19 16 15 15 14 14 14 16 21 25 27 23 9 4 5 2 5 7 6 4 5 4 5 2 3 10 2 5 3 3 5 2 4 6 12 2 5 7 11 6 8 8 7
23 23 21 19 18 18 17 16 16 15 15 16 20 24 26 27 17 10 6 4 10 13 15 15 10 5 6 7 6 2 2 1 4 2 1 4 2 4 8 10 10 8 4 8 9 8 7
26 26 23 21 20 19 17 17 17 16 16 17 22 22 25 23 21 14 12 12 9 11 13 13 8 9 7 7 5 3 2 4 2 5 2 3 4 2 6 7 3 3 5 8 5 8 5
Wind_Direction
36 33 29 26 24 20 16 12 10 5 2 360 359 354 349 350 348 345 342 338 332 325 316 304 287 265 238 219 203 195 203 202 204 196 185 161 154 152 171 238 247 269 314 217 189 175 165
30 26 22 21 20 18 15 11 8 4 4 2 357 353 355 357 352 348 345 340 340 336 327 319 304 282 247 216 213 207 183 197 198 195 179 175 141 150 36 283 243 272 225 122 179 171 170
26 21 17 15 12 10 8 8 7 2 0 355 354 356 358 357 358 353 354 359 3 1 356 346 328 298 234 200 220 219 210 190 192 185 179 155 154 165 160 303 270 258 166 171 168 174 178
16 12 9 9 6 4 0 3 4 356 355 354 353 357 355 356 4 15 28 38 39 34 26 27 33 31 284 219 233 220 195 183 184 184 168 165 170 164 140 259 275 272 207 176 180 179 154
10 5 2 2 4 0 359 358 358 357 357 355 356 1 354 10 21 60 80 67 62 75 66 70 79 73 38 356 271 256 177 184 172 175 167 170 183 180 184 258 294 10 305 91 54 136 158
9 6 6 6 4 2 359 358 357 1 4 2 1 10 9 22 48 107 99 70 57 89 92 77 76 84 41 16 322 228 166 144 147 160 166 174 184 191 190 196 222 226 227 209 306 28 203
12 12 10 9 6 4 2 1 4 10 16 17 11 14 13 33 90 133 113 40 52 52 64 65 116 86 64 0 338 128 157 150 131 167 165 171 208 203 196 202 249 261 220 243 180 57 206
15 12 11 10 5 5 6 6 11 17 19 18 13 18 27 58 104 126 91 52 53 47 61 47 45 43 139 58 299 138 152 175 189 182 183 198 222 206 189 225 179 178 196 173 151 146 197
13 9 9 8 7 6 8 11 13 17 19 23 30 41 59 87 110 110 88 100 73 40 36 54 57 30 18 341 97 154 168 153 192 192 184 201 117 135 187 200 217 326 343 264 160 144 189
13 10 8 8 7 9 9 13 15 21 27 32 41 54 76 101 120 115 106 103 79 46 26 43 38 35 19 101 223 174 101 164 184 185 198 246 180 221 220 229 232 186 209 40 174 143 114
13 12 10 7 6 9 10 12 17 24 25 27 35 47 94 127 131 173 109 98 79 53 22 19 339 333 300 286 69 136 91 205 195 207 259 243 242 208 230 240 213 201 165 106 161 142 141
14 11 10 7 4 6 8 6 16 25 23 22 30 41 115 145 104 103 115 109 88 69 31 54 337 107 34 95 246 242 178 206 227 279 258 256 244 263 266 244 189 177 146 145 154 163 267
12 11 9 6 2 0 5 2 10 30 39 38 47 61 100 107 100 115 83 76 66 47 344 352 340 278 10 10 118 178 117 208 214 306 284 273 236 263 172 144 165 169 147 101 221 238 238
9 8 7 5 1 357 360 2 10 47 70 65 66 78 96 107 106 98 87 70 46 10 3 1 7 44 34 79 323 235 240 203 192 276 312 313 296 156 166 177 177 174 158 126 196 183 248
6 4 3 3 1 357 359 360 6 94 103 95 93 100 114 101 99 82 70 62 27 352 27 15 46 68 19 299 346 314 234 223 326 267 247 313 266 233 198 188 187 182 204 209 158 177 187
358 1 359 0 359 356 354 357 343 134 136 119 122 115 105 96 75 62 46 22 70 356 49 63 59 41 338 9 25 102 31 213 352 103 195 273 269 254 233 201 203 225 250 200 226 159 225
353 354 355 356 355 353 350 353 352 151 145 128 129 125 98 73 56 32 14 47 40 58 53 44 37 30 133 19 4 72 62 267 342 39 32 157 274 239 243 216 213 217 229 228 217 234 170
345 348 350 351 350 350 348 351 309 179 167 149 137 138 70 41 349 353 65 4 38 23 50 77 84 56 34 353 7 53 72 299 344 327 347 16 343 322 291 86 222 213 227 248 254 253 288
337 341 342 346 344 345 346 343 327 194 179 168 158 144 195 231 283 343 299 213 308 304 339 300 5 83 7 21 20 29 6 335 355 7 333 333 13 349 275 143 145 123 53 25 279 288 272
331 334 337 338 339 339 339 336 329 202 192 190 176 139 171 252 315 319 309 197 269 311 61 7 60 221 329 17 30 34 64 32 319 342 354 342 18 208 335 327 323 288 360 1 11 9 332
326 328 332 335 335 334 331 325 305 218 200 198 196 170 21 348 18 299 232 203 76 155 118 144 200 24 23 16 8 341 291 37 56 299 317 5 90 268 235 319 330 250 325 359 356 345 315
320 323 326 328 330 329 325 319 291 251 209 210 216 221 177 144 287 196 236 219 261 203 287 243 271 295 337 33 43 358 7 13 23 357 315 327 273 309 211 239 287 246 323 350 37 52 115
315 316 319 322 323 323 318 315 294 263 218 213 214 220 212 187 235 318 287 195 232 261 290 265 341 310 273 234 272 272 278 292 292 319 283 304 271 298 262 19 183 93 44 73 78 86 110
309 310 309 311 313 314 313 307 294 272 227 222 215 216 225 208 296 344 165 268 259 265 97 230 297 314 334 281 283 274 257 260 269 286 275 286 292 253 280 321 89 113 124 182 98 45 56
300 306 303 305 305 301 305 301 290 267 239 228 223 216 229 221 299 225 185 220 194 286 275 284 321 322 349 78 118 36 359 343 269 294 260 259 268 33 285 291 155 162 155 123 190 213 313
296 305 300 302 307 304 294 295 281 262 249 232 231 224 227 220 220 140 135 253 253 241 306 199 242 266 324 125 18 344 312 327 284 310 299 296 270 238 338 300 198 227 198 146 156 147 248
296 302 298 296 305 305 291 287 282 261 246 233 233 231 227 232 193 267 234 228 229 234 257 188 192 251 304 292 291 315 184 319 301 16 23 52 231 219 235 30 271 249 230 227 204 208 253
294 299 298 294 301 305 299 281 279 263 244 234 232 229 231 231 197 227 227 226 279 276 260 258 257 269 240 258 261 187 164 281 343 337 326 55 246 194 209 202 255 279 265 236 206 224 272
291 294 292 290 295 297 299 286 276 265 242 228 230 235 233 230 207 222 232 245 284 259 255 250 244 251 249 248 228 241 278 253 202 300 288 211 194 244 206 210 231 272 252 235 299 247 267
Height
3169 3167 3165 3163 3161 3159 3157 3155 3153 3151 3150 3148 3147 3146 3144 3143 3142 3141 3140 3139 3138 3137 3137 3136 3136 3137 3139 3142 3146 3147 3150 3152 3155 3158 3162 3165 3168 3169 3170 3172 3173 3171 3170 3168 3170 3173 3177
3170 3168 3166 3164 3162 3159 3157 3154 3152 3151 3149 3147 3146 3145 3144 3143 3141 3140 3139 3138 3137 3136 3136 3135 3135 3136 3138 3141 3142 3145 3148 3151 3154 3157 3161 3164 3167 3169 3171 3172 3170 3170 3163 3160 3168 3172 3177
3172 3169 3166 3164 3161 3159 3157 3154 3152 3150 3148 3147 3145 3144 3143 3142 3141 3139 3138 3137 3136 3136 3135 3134 3134 3135 3136 3139 3139 3142 3146 3149 3153 3157 3160 3165 3167 3168 3170 3171 3170 3168 3168 3168 3169 3163 3176
3172 3170 3167 3164 3161 3159 3156 3153 3151 3149 3147 3146 3145 3144 3142 3141 3140 3139 3138 3137 3136 3136 3135 3134 3134 3135 3136 3137 3137 3140 3145 3147 3151 3155 3160 3164 3166 3167 3168 3170 3170 3168 3168 3170 3160 3172 3174
3172 3170 3167 3164 3161 3158 3155 3152 3150 3148 3146 3145 3144 3143 3141 3140 3139 3139 3138 3138 3136 3136 3135 3135 3136 3136 3137 3138 3139 3139 3143 3146 3150 3154 3159 3162 3163 3165 3167 3169 3169 3169 3166 3163 3160 3169 3172
3172 3169 3166 3164 3160 3158 3155 3151 3149 3147 3145 3144 3143 3142 3141 3140 3139 3139 3139 3138 3137 3136 3136 3136 3137 3139 3139 3139 3137 3137 3142 3144 3150 3153 3157 3160 3161 3163 3164 3167 3168 3169 3169 3167 3166 3170 3173
3172 3168 3166 3164 3160 3157 3154 3151 3148 3146 3144 3143 3143 3141 3140 3139 3139 3139 3139 3139 3141 3140 3137 3137 3138 3138 3137 3140 3139 3140 3142 3144 3148 3154 3156 3158 3160 3160 3163 3167 3168 3169 3167 3166 3167 3169 3172
3172 3169 3166 3163 3161 3157 3153 3151 3148 3146 3144 3143 3142 3141 3140 3139 3139 3139 3140 3140 3140 3141 3140 3138 3138 3137 3137 3138 3140 3140 3143 3146 3148 3152 3155 3158 3156 3161 3165 3166 3167 3169 3169 3170 3169 3167 3171
3172 3170 3166 3163 3160 3157 3154 3151 3149 3147 3145 3143 3142 3141 3140 3140 3139 3140 3140 3140 3141 3140 3140 3139 3139 3138 3139 3140 3140 3141 3143 3145 3149 3152 3154 3154 3156 3160 3163 3165 3167 3169 3173 3172 3171 3169 3169
3173 3170 3167 3163 3159 3157 3154 3151 3149 3148 3146 3144 3143 3142 3141 3141 3142 3141 3141 3142 3141 3140 3140 3142 3140 3141 3142 3141 3141 3141 3143 3147 3148 3151 3153 3154 3154 3157 3162 3162 3165 3165 3169 3170 3172 3170 3168
3174 3170 3167 3163 3160 3157 3154 3152 3150 3148 3146 3144 3143 3142 3142 3141 3141 3141 3144 3142 3141 3141 3143 3145 3142 3142 3141 3143 3143 3143 3145 3147 3147 3150 3155 3152 3153 3155 3157 3157 3162 3165 3167 3169 3172 3171 3173
3175 3171 3167 3163 3160 3157 3155 3152 3150 3148 3147 3145 3143 3142 3142 3141 3142 3143 3143 3143 3143 3145 3145 3145 3144 3143 3144 3143 3144 3144 3144 3147 3148 3149 3149 3148 3150 3153 3153 3152 3158 3162 3165 3170 3172 3174 3173
3175 3171 3167 3164 3160 3158 3155 3153 3151 3149 3147 3145 3143 3143 3142 3143 3145 3146 3146 3145 3145 3144 3147 3147 3144 3144 3144 3143 3143 3142 3144 3145 3147 3149 3147 3146 3147 3150 3148 3153 3161 3162 3165 3172 3178 3176 3171
3175 3172 3168 3164 3161 3158 3155 3153 3151 3150 3148 3146 3145 3145 3145 3145 3146 3147 3146 3147 3146 3147 3147 3145 3145 3142 3145 3145 3144 3144 3144 3146 3147 3149 3148 3148 3147 3150 3150 3152 3155 3160 3161 3166 3172 3172 3168
3176 3172 3168 3164 3161 3157 3155 3153 3152 3151 3150 3148 3147 3147 3148 3149 3148 3148 3148 3146 3148 3148 3147 3145 3145 3145 3145 3145 3145 3145 3145 3147 3148 3148 3149 3147 3145 3145 3150 3150 3154 3158 3158 3161 3163 3164 3165
3175 3172 3168 3164 3160 3157 3154 3152 3151 3150 3150 3149 3149 3150 3151 3151 3150 3149 3148 3148 3149 3148 3148 3146 3145 3147 3146 3145 3146 3144 3146 3147 3147 3147 3145 3146 3144 3145 3145 3151 3152 3153 3157 3160 3160 3163 3163
3174 3171 3167 3163 3159 3156 3153 3152 3150 3150 3150 3150 3150 3151 3152 3151 3151 3150 3148 3149 3150 3149 3149 3147 3147 3146 3146 3147 3146 3145 3146 3147 3146 3145 3145 3144 3144 3144 3143 3144 3148 3152 3152 3155 3156 3155 3154
3173 3169 3166 3162 3159 3155 3152 3150 3150 3150 3151 3151 3151 3152 3152 3150 3152 3150 3150 3150 3150 3150 3149 3148 3147 3147 3147 3147 3146 3146 3146 3146 3144 3144 3143 3143 3142 3142 3141 3141 3141 3146 3151 3152 3151 3153 3151
3171 3168 3164 3161 3157 3154 3151 3149 3149 3149 3150 3150 3151 3150 3151 3151 3150 3150 3149 3150 3150 3149 3149 3148 3148 3148 3148 3147 3147 3146 3146 3146 3145 3144 3143 3144 3142 3142 3139 3142 3142 3144 3146 3147 3147 3147 3147
3167 3165 3162 3159 3156 3152 3150 3148 3146 3147 3149 3150 3150 3150 3150 3150 3149 3150 3148 3149 3148 3148 3148 3148 3148 3147 3147 3147 3147 3146 3146 3144 3144 3144 3143 3144 3144 3145 3145 3146 3146 3145 3145 3146 3146 3145 3145
3164 3162 3159 3156 3153 3150 3148 3145 3144 3144 3146 3148 3147 3147 3148 3148 3148 3149 3148 3148 3146 3147 3147 3147 3147 3147 3146 3145 3145 3145 3145 3144 3144 3143 3144 3145 3145 3144 3143 3144 3145 3145 3146 3145 3145 3143 3143
3161 3158 3156 3153 3150 3148 3145 3143 3141 3141 3142 3144 3145 3145 3147 3145 3145 3143 3145 3146 3145 3146 3147 3146 3146 3146 3146 3144 3145 3144 3144 3145 3144 3144 3144 3144 3144 3144 3146 3147 3144 3144 3146 3146 3144 3142 3141
3157 3154 3152 3150 3147 3144 3142 3140 3139 3137 3138 3140 3141 3143 3143 3144 3144 3143 3143 3144 3144 3145 3145 3144 3144 3144 3142 3142 3142 3144 3144 3143 3143 3143 3142 3142 3142 3142 3143 3142 3141 3145 3146 3144 3145 3144 3144
3152 3149 3147 3145 3143 3141 3138 3136 3135 3134 3135 3136 3138 3140 3142 3142 3143 3142 3142 3142 3141 3142 3143 3143 3142 3143 3142 3140 3141 3140 3142 3141 3141 3141 3140 3140 3141 3141 3141 3140 3142 3147 3145 3145 3144 3145 3146
3146 3144 3142 3140 3138 3136 3134 3133 3131 3131 3131 3132 3133 3137 3138 3139 3141 3140 3140 3140 3139 3140 3141 3141 3141 3142 3139 3137 3139 3138 3139 3139 3138 3138 3138 3138 3139 3140 3140 3140 3143 3144 3143 3142 3140 3144 3147
3140 3138 3136 3134 3133 3131 3130 3128 3127 3126 3127 3128 3129 3132 3134 3136 3139 3137 3136 3137 3137 3138 3139 3138 3139 3140 3140 3139 3138 3138 3137 3137 3137 3136 3135 3135 3135 3137 3140 3140 3139 3140 3141 3142 3142 3144 3144
3134 3132 3130 3129 3128 3126 3124 3123 3122 3122 3123 3124 3124 3126 3129 3130 3135 3134 3134 3135 3136 3137 3137 3138 3137 3138 3137 3137 3137 3136 3136 3136 3134 3133 3133 3133 3132 3131 3136 3140 3139 3137 3139 3140 3143 3145 3142
3127 3126 3124 3123 3122 3121 3119 3118 3118 3118 3118 3120 3119 3119 3123 3126 3132 3132 3132 3133 3134 3134 3135 3136 3137 3135 3135 3135 3135 3134 3135 3135 3132 3132 3131 3133 3132 3132 3133 3134 3139 3137 3138 3140 3138 3138 3140
3120 3119 3118 3117 3116 3115 3114 3113 3113 3112 3113 3115 3116 3117 3119 3123 3128 3128 3129 3131 3131 3131 3131 3131 3133 3133 3132 3132 3133 3133 3133 3132 3132 3131 3130 3131 3133 3132 3132 3130 3131 3132 3135 3136 3135 3136 3138